Vorticity
9 7 6 7 9 11 10 9 7 6 6 6 6 5 4 4 4 5 6 7 8 7 7 6 5 4 4 4 4 5 5 5 5 5 5 5 5 5 5 5 5 6 6 5 6 6 6 6 6 6 6 6
8 7 7 10 10 9 8 8 7 6 7 6 5 4 3 3 4 5 7 7 7 6 6 5 4 4 5 5 6 6 6 6 5 5 6 6 6 5 5 5 5 5 6 6 6 6 6 6 6 6 6 5
8 9 9 10 9 7 8 7 7 6 6 6 4 3 3 4 5 6 6 5 5 4 4 4 4 5 5 5 5 5 5 5 5 5 5 5 5 5 5 5 5 5 5 6 6 6 6 6 6 6 6 6
9 10 9 7 7 7 7 7 7 7 6 5 4 3 3 4 5 6 6 5 4 4 4 4 5 5 5 5 4 4 4 4 4 4 4 4 5 4 5 5 5 5 5 5 6 6 6 6 7 6 6 7
8 8 7 6 6 6 5 5 4 4 4 4 3 3 3 4 5 6 6 6 5 4 4 4 4 4 3 3 3 3 2 3 3 4 4 4 5 4 5 5 5 5 5 5 5 5 6 6 6 6 6 6
6 5 6 6 6 6 5 4 2 1 2 3 3 3 3 4 5 6 6 6 5 5 4 4 4 3 3 2 2 2 2 3 3 3 4 4 4 4 4 4 4 4 4 4 4 4 5 5 5 5 5 6
7 5 6 6 6 5 4 4 4 4 4 4 4 4 5 5 6 7 7 6 5 5 4 3 3 3 3 3 2 2 2 3 3 3 3 3 3 3 3 3 3 3 3 3 3 3 4 4 4 4 4 4
6 6 5 5 5 4 3 3 4 5 5 5 5 4 5 5 6 6 7 7 6 6 5 3 2 2 2 2 3 3 2 2 2 2 1 2 2 3 3 2 3 2 2 2 2 3 3 3 4 4 4 4
4 5 5 4 4 3 3 3 4 4 5 5 5 5 5 5 5 5 6 6 7 7 6 4 3 2 2 2 2 3 3 3 3 3 2 1 1 2 2 2 3 3 3 3 3 3 3 3 4 4 5 5
3 4 5 5 4 4 4 5 5 6 6 6 6 6 6 6 6 6 6 7 7 8 8 6 4 2 1 1 0 2 2 3 4 5 5 4 3 3 3 3 4 5 5 5 5 5 5 6 5 5 5 5
4 4 5 6 6 6 6 6 6 7 7 7 8 7 7 7 7 6 7 7 8 8 8 7 6 4 3 2 1 2 1 1 1 2 3 4 4 4 4 4 4 5 6 6 6 7 7 7 7 6 6 5
6 6 6 7 7 8 7 7 7 7 8 8 9 9 9 8 8 8 7 7 7 7 7 7 6 6 5 4 3 3 3 2 2 1 2 2 2 3 3 3 4 4 5 6 6 6 7 7 7 7 7 7
7 8 8 8 8 7 6 6 6 7 8 8 8 8 9 9 9 9 9 8 8 7 7 7 7 7 6 5 4 3 3 2 3 2 2 2 2 3 3 3 3 4 4 5 6 6 6 6 6 7 7 8
8 8 8 7 6 6 5 5 6 5 6 6 6 6 7 7 8 9 9 9 9 9 9 8 8 7 7 6 5 4 2 2 2 2 3 3 3 4 4 4 4 4 4 4 4 5 5 5 5 5 6 7
8 7 6 6 5 5 5 5 5 5 5 5 5 6 7 7 8 8 8 8 8 9 9 9 8 8 8 7 5 5 3 2 2 2 3 3 4 5 5 5 5 4 4 3 4 4 4 4 4 4 4 5
6 6 6 6 6 5 5 4 5 5 5 6 6 7 7 8 8 8 8 8 9 9 9 8 9 8 8 8 7 7 7 6 6 5 5 5 5 6 6 6 6 5 5 5 4 4 5 5 4 5 4 5
6 6 6 5 5 4 4 4 4 5 5 5 5 6 6 6 6 7 7 7 8 8 9 8 8 8 8 9 8 9 9 8 8 8 8 8 7 7 7 7 7 6 6 6 5 5 6 6 6 6 6 6
6 5 4 4 4 4 5 5 6 6 6 6 6 6 5 6 6 6 7 7 8 8 8 8 8 8 8 8 8 8 8 8 8 8 8 8 8 8 7 8 7 7 6 6 5 5 5 5 6 6 6 7
5 4 5 5 6 7 7 7 7 7 7 6 7 6 6 6 6 6 7 6 7 7 7 8 8 8 8 8 8 8 8 8 8 8 8 8 8 8 8 8 7 7 7 7 6 6 5 5 6 6 6 6
6 5 6 7 7 7 7 7 7 7 7 6 7 7 7 7 6 6 6 5 5 5 4 5 5 5 5 5 5 6 6 6 6 6 6 6 6 6 6 6 6 6 6 6 6 6 7 7 8 7 7 6
6 6 6 6 6 6 6 6 6 7 7 7 7 8 8 9 9 8 9 9 8 8 8 7 7 7 7 7 7 7 6 6 6 6 6 6 6 6 6 6 6 6 6 6 6 7 7 7 7 7 7 7
5 6 6 6 7 6 7 7 7 8 9 9 8 8 9 9 10 9 9 10 10 9 9 9 9 9 9 9 9 9 9 9 9 9 9 9 9 8 8 8 8 8 7 7 7 8 7 6 6 6 6 6
8 8 8 8 8 7 8 9 8 8 8 8 7 8 7 7 7 7 7 6 6 6 6 7 7 7 7 7 7 7 7 7 7 8 8 8 8 8 9 9 9 8 7 7 7 7 6 6 6 5 4 4
10 9 8 8 8 7 8 9 7 6 6 5 5 5 6 6 5 6 6 5 6 6 6 7 6 6 5 5 5 5 5 5 5 5 5 5 5 6 6 7 8 8 9 8 8 7 7 8 8 6 5 5
7 6 7 8 8 8 6 5 4 4 4 4 4 5 8 10 8 9 9 9 10 9 10 10 9 9 8 8 8 8 7 7 7 6 6 6 6 6 6 6 6 6 7 7 7 6 6 6 7 9 10 9
4 5 6 6 5 4 3 2 2 4 5 6 8 9 11 12 10 11 11 11 11 10 10 10 10 10 10 10 10 9 9 9 9 9 9 8 8 8 8 8 7 7 8 8 9 9 8 7 5 5 7 9
3 4 4 4 4 4 4 4 6 7 8 9 10 9 9 9 8 8 8 7 7 7 7 7 6 6 6 6 6 6 6 6 6 6 7 7 7 8 7 8 9 10 11 11 12 13 13 13 11 7 5 7
3 4 5 5 6 7 7 8 9 10 10 9 9 8 7 8 7 6 6 5 5 5 5 5 5 5 4 5 5 5 5 5 6 6 6 7 8 9 9 9 9 9 10 12 13 13 13 13 14 14 11 8
3 4 6 7 7 9 9 10 10 9 9 8 8 8 7 7 6 6 6 5 5 5 5 5 5 5 5 6 7 8 9 9 10 10 11 11 12 12 13 12 12 11 10 10 11 11 11 10 9 10 11 10
4 5 6 6 7 8 8 8 8 7 8 7 7 6 5 5 5 5 5 4 5 5 6 6 7 8 9 10 11 12 13 13 14 14 15 14 14 14 13 13 12 10 9 8 7 6 6 5 4 3 3 4
7 7 8 8 8 8 7 6 7 7 7 6 6 5 4 4 4 5 6 6 7 8 9 10 11 12 13 13 14 14 14 14 13 12 12 10 9 8 7 7 7 5 5 6 5 6 5 4 4 4 4 4
Height
5806 5805 5804 5803 5802 5800 5799 5798 5797 5795 5794 5793 5791 5790 5789 5788 5786 5785 5783 5781 5780 5778 5776 5775 5773 5771 5770 5768 5766 5765 5763 5762 5760 5759 5757 5756 5754 5753 5751 5750 5748 5747 5745 5743 5742 5740 5739 5737 5736 5734 5733 5731
5804 5803 5802 5800 5799 5798 5797 5796 5794 5793 5792 5790 5789 5788 5786 5785 5783 5782 5780 5778 5777 5775 5773 5772 5770 5768 5767 5765 5763 5762 5760 5759 5757 5755 5754 5752 5750 5749 5747 5746 5744 5743 5741 5739 5737 5736 5734 5732 5731 5730 5728 5726
5802 5800 5799 5798 5797 5796 5794 5793 5792 5791 5789 5788 5787 5785 5784 5782 5781 5779 5777 5775 5773 5771 5770 5768 5766 5765 5763 5762 5760 5758 5757 5755 5753 5752 5750 5748 5746 5745 5743 5741 5740 5738 5736 5734 5733 5731 5729 5727 5726 5725 5723 5721
5800 5798 5796 5796 5795 5793 5792 5791 5789 5788 5787 5785 5784 5782 5780 5779 5777 5775 5773 5771 5770 5768 5766 5764 5763 5761 5759 5758 5756 5755 5753 5751 5749 5747 5746 5744 5742 5740 5739 5737 5735 5733 5731 5730 5728 5726 5724 5722 5721 5719 5717 5715
5797 5796 5794 5793 5792 5790 5789 5788 5786 5785 5784 5782 5780 5779 5777 5776 5774 5772 5770 5768 5766 5764 5762 5760 5759 5757 5755 5754 5752 5750 5749 5747 5745 5743 5741 5740 5738 5736 5734 5733 5731 5728 5726 5724 5722 5721 5718 5717 5715 5713 5711 5710
5794 5794 5792 5791 5789 5787 5786 5784 5783 5782 5780 5778 5776 5775 5773 5772 5770 5768 5766 5764 5762 5760 5758 5756 5754 5753 5751 5749 5748 5746 5744 5742 5740 5738 5736 5734 5732 5731 5729 5727 5725 5723 5720 5718 5716 5714 5712 5710 5709 5707 5705 5704
5792 5791 5790 5788 5787 5785 5784 5782 5780 5778 5777 5775 5773 5771 5770 5768 5766 5764 5762 5760 5758 5756 5754 5752 5750 5748 5747 5744 5742 5741 5739 5737 5734 5732 5731 5729 5726 5724 5723 5721 5719 5716 5714 5712 5709 5707 5706 5704 5702 5700 5698 5697
5789 5788 5787 5786 5784 5783 5781 5779 5777 5775 5773 5772 5770 5768 5766 5764 5762 5760 5758 5756 5754 5752 5750 5748 5746 5744 5742 5740 5738 5735 5733 5731 5728 5726 5725 5723 5720 5718 5716 5714 5712 5709 5707 5705 5703 5701 5699 5697 5695 5693 5691 5689
5787 5786 5784 5783 5782 5780 5778 5776 5775 5773 5771 5769 5767 5764 5762 5760 5759 5757 5755 5752 5750 5748 5746 5744 5742 5739 5737 5735 5733 5730 5728 5725 5722 5720 5718 5716 5714 5712 5710 5708 5705 5703 5701 5698 5696 5694 5692 5691 5689 5687 5685 5682
5785 5783 5782 5780 5779 5777 5775 5773 5771 5770 5768 5765 5763 5761 5759 5757 5754 5752 5750 5748 5746 5743 5741 5739 5737 5735 5732 5730 5727 5725 5722 5720 5717 5714 5712 5710 5708 5706 5704 5702 5699 5697 5694 5692 5690 5687 5685 5683 5682 5680 5678 5676
5781 5780 5779 5777 5776 5774 5772 5770 5768 5766 5764 5762 5759 5757 5755 5753 5750 5748 5746 5743 5741 5739 5736 5734 5732 5729 5726 5724 5722 5719 5717 5715 5712 5710 5707 5705 5702 5700 5698 5695 5693 5691 5688 5686 5683 5681 5679 5676 5674 5672 5670 5668
5778 5777 5776 5774 5773 5771 5769 5766 5764 5762 5760 5757 5755 5753 5750 5748 5746 5743 5741 5739 5736 5734 5732 5729 5726 5724 5721 5718 5715 5713 5710 5708 5706 5704 5701 5699 5696 5694 5691 5689 5686 5684 5681 5679 5676 5674 5671 5669 5666 5664 5662 5659
5776 5774 5772 5770 5769 5767 5765 5762 5760 5758 5755 5753 5750 5748 5745 5743 5741 5738 5736 5733 5731 5728 5726 5723 5720 5718 5715 5712 5709 5706 5704 5701 5698 5696 5694 5691 5688 5686 5683 5681 5678 5676 5674 5671 5668 5666 5663 5661 5658 5655 5653 5651
5773 5771 5769 5767 5765 5763 5760 5758 5755 5753 5751 5748 5745 5742 5740 5737 5735 5733 5730 5728 5725 5722 5720 5717 5714 5711 5709 5706 5703 5700 5697 5694 5691 5689 5686 5683 5680 5677 5675 5672 5670 5667 5665 5663 5660 5657 5655 5652 5649 5647 5644 5642
5769 5767 5765 5763 5760 5758 5756 5753 5751 5748 5746 5743 5740 5738 5735 5732 5729 5727 5724 5722 5719 5716 5713 5711 5708 5705 5702 5699 5696 5692 5690 5687 5684 5681 5678 5675 5672 5669 5666 5663 5661 5658 5656 5654 5651 5648 5646 5643 5640 5638 5635 5633
5766 5764 5761 5759 5756 5754 5751 5749 5746 5743 5741 5738 5736 5733 5730 5727 5724 5721 5718 5716 5713 5710 5707 5704 5701 5698 5695 5691 5688 5685 5682 5679 5675 5672 5669 5666 5663 5660 5657 5654 5652 5649 5646 5644 5642 5639 5636 5633 5630 5628 5626 5623
5762 5760 5757 5755 5752 5750 5747 5745 5742 5739 5736 5733 5730 5728 5725 5722 5719 5716 5713 5710 5707 5703 5700 5697 5693 5690 5687 5684 5680 5677 5674 5670 5667 5664 5660 5657 5654 5651 5648 5645 5642 5639 5636 5634 5632 5629 5626 5623 5620 5618 5615 5613
5758 5756 5754 5751 5749 5746 5743 5740 5737 5734 5731 5728 5725 5722 5719 5716 5712 5709 5706 5703 5700 5697 5693 5690 5686 5683 5679 5676 5672 5669 5665 5662 5659 5655 5652 5649 5645 5642 5638 5635 5633 5629 5627 5624 5621 5619 5616 5612 5610 5608 5605 5603
5755 5752 5750 5747 5744 5741 5739 5735 5732 5729 5726 5723 5719 5716 5713 5710 5706 5703 5700 5696 5693 5690 5686 5683 5679 5676 5672 5668 5665 5661 5657 5653 5650 5646 5643 5639 5636 5633 5630 5626 5624 5620 5616 5614 5611 5608 5605 5602 5599 5597 5594 5592
5750 5748 5745 5742 5740 5737 5734 5730 5727 5724 5721 5718 5714 5711 5708 5704 5701 5697 5694 5690 5687 5683 5680 5676 5672 5669 5665 5661 5657 5653 5649 5645 5641 5637 5633 5629 5625 5623 5620 5617 5614 5610 5606 5604 5601 5598 5595 5592 5588 5585 5583 5579
5746 5743 5741 5738 5735 5732 5729 5725 5722 5719 5716 5713 5710 5706 5703 5699 5696 5692 5688 5684 5681 5677 5673 5669 5665 5661 5658 5654 5650 5645 5641 5637 5632 5628 5624 5621 5616 5612 5609 5606 5602 5599 5595 5592 5590 5588 5584 5581 5578 5575 5571 5568
5742 5739 5736 5733 5730 5727 5723 5720 5718 5714 5711 5708 5704 5701 5698 5694 5691 5687 5683 5679 5675 5671 5667 5663 5658 5654 5650 5646 5642 5637 5633 5628 5624 5620 5615 5612 5608 5602 5597 5594 5590 5587 5584 5581 5578 5576 5573 5569 5567 5564 5561 5557
5738 5735 5732 5728 5725 5722 5719 5716 5713 5709 5706 5703 5699 5696 5693 5688 5685 5681 5677 5673 5668 5664 5660 5655 5651 5647 5642 5638 5633 5629 5624 5619 5615 5610 5606 5601 5597 5593 5587 5582 5578 5574 5571 5570 5567 5563 5561 5558 5554 5551 5548 5545
5735 5731 5728 5725 5722 5719 5716 5712 5709 5705 5701 5698 5695 5692 5688 5682 5679 5674 5669 5665 5661 5657 5652 5648 5643 5639 5634 5629 5625 5620 5615 5610 5606 5601 5596 5592 5587 5583 5578 5571 5565 5561 5558 5556 5555 5551 5548 5546 5541 5538 5535 5532
5732 5729 5726 5722 5719 5716 5712 5708 5705 5701 5697 5693 5689 5686 5682 5677 5672 5668 5663 5659 5654 5650 5645 5640 5635 5631 5626 5621 5616 5611 5606 5601 5596 5591 5586 5582 5577 5571 5567 5562 5554 5548 5545 5542 5540 5538 5537 5534 5528 5525 5521 5519
5729 5726 5722 5719 5715 5711 5708 5704 5700 5696 5692 5687 5683 5680 5677 5671 5665 5661 5656 5651 5647 5642 5637 5632 5627 5622 5617 5612 5606 5601 5596 5591 5586 5581 5576 5571 5567 5561 5555 5551 5544 5537 5532 5528 5525 5522 5522 5523 5519 5515 5507 5504
5725 5721 5718 5714 5710 5707 5703 5698 5694 5690 5685 5681 5676 5671 5669 5664 5658 5653 5648 5643 5639 5634 5629 5624 5619 5614 5608 5603 5598 5592 5587 5581 5576 5570 5565 5560 5556 5551 5545 5539 5532 5524 5517 5513 5510 5506 5504 5504 5504 5504 5498 5492
5721 5717 5713 5709 5705 5701 5697 5692 5687 5682 5677 5673 5669 5664 5661 5658 5653 5648 5643 5638 5633 5628 5623 5617 5612 5606 5601 5595 5589 5584 5578 5572 5566 5560 5555 5549 5543 5538 5533 5528 5521 5512 5504 5497 5493 5488 5487 5487 5485 5485 5485 5482
5716 5712 5709 5704 5700 5696 5691 5687 5683 5678 5674 5669 5665 5660 5656 5652 5647 5642 5636 5631 5625 5620 5614 5608 5603 5597 5591 5585 5579 5573 5567 5561 5555 5549 5543 5537 5531 5524 5519 5514 5509 5501 5493 5486 5477 5470 5466 5466 5467 5467 5467 5464
5712 5708 5704 5700 5696 5692 5687 5684 5680 5675 5670 5665 5660 5654 5649 5644 5639 5633 5627 5622 5616 5610 5605 5598 5592 5587 5580 5574 5568 5562 5556 5549 5543 5537 5530 5524 5518 5512 5505 5500 5495 5489 5483 5475 5466 5458 5448 5442 5440 5443 5446 5443
5707 5703 5698 5695 5690 5687 5682 5677 5673 5668 5663 5657 5652 5647 5641 5636 5631 5625 5619 5613 5607 5601 5596 5590 5583 5577 5571 5565 5558 5552 5545 5539 5532 5526 5519 5512 5506 5500 5493 5487 5481 5475 5471 5464 5455 5447 5438 5429 5420 5415 5418 5418